[[{"header":{"parameterUnit":"m.s-1","parameterCategory":1,"la1":30.2991,"la2":30.254,"lo1":-89.0895,"lo2":-89.0444,"dy":0.0017,"dx":0.0017,"nx":28,"ny":28,"refTime":"2024-11-24T09:00:00:Z","depth":0,"parameterNumber":2,"parameterNumberName":"U-component_of_WINDS"},"data":[0,0,0,0,0,0,0,0,0,0,0,0,0,0,0,0,0,0,0,0,0,0,0,0,0,0,0,0,0,0,0,0,0,0,0,0,0,0,0,0,0,0,0,0,0,0,0,0,0,0,0,0,0,0,0,0,0,0,-1.3908,-1.3909,0,-1.3981,-1.3982,-1.3983,-1.4017,-1.4017,-1.4017,-1.4017,-1.4091,-1.4093,-1.4095,0,0,0,0,0,0,0,0,0,0,0,0,0,-1.3796,-1.3798,-1.3908,-1.3909,-1.391,-1.3981,-1.3982,-1.3983,-1.4017,-1.4017,-1.4017,-1.4017,-1.409,-1.4093,-1.4095,0,0,0,0,0,0,0,0,0,0,0,0,0,-1.3854,-1.3798,-1.3908,-1.3935,-1.3938,-1.3981,-1.3982,-1.3984,-1.4017,-1.4017,-1.4017,-1.4017,-1.409,-1.4093,-1.4096,-1.4116,0,0,-1.4105,-1.4106,0,0,0,0,0,0,0,0,-1.3851,-1.3859,-1.393,-1.3933,-1.3937,-1.399,-1.397,-1.4028,-1.4017,-1.3987,-1.4017,-1.4017,-1.4057,-1.4063,-1.4077,-1.412,-1.4123,-1.4105,-1.4107,-1.4108,-1.4109,0,0,0,0,0,0,0,-1.3847,-1.3856,-1.3937,-1.3931,-1.3935,-1.3944,-1.3952,-1.3981,-1.4022,-1.399,-1.3992,-1.4001,-1.4059,-1.4074,-1.4079,-1.4124,-1.4105,-1.4108,-1.411,-1.4111,-1.4187,-1.4187,0,0,0,0,0,0,-1.3839,-1.3852,-1.3935,-1.3939,-1.3893,-1.3946,-1.3955,-1.3973,-1.4022,-1.4029,-1.4001,-1.4002,-1.4069,-1.4075,-1.4082,-1.4109,-1.4108,-1.4111,-1.4113,-1.4187,-1.4187,-1.4187,0,0,0,0,0,0,-1.3836,-1.3846,-1.3932,-1.3896,-1.3908,-1.3948,-1.3968,-1.3975,-1.3989,-1.403,-1.4037,-1.4008,-1.4069,-1.4078,-1.4108,-1.4112,-1.4113,-1.4115,-1.4187,-1.4187,-1.4187,-1.4164,0,0,0,0,0,0,-1.3833,-1.3845,-1.3853,-1.3896,-1.391,-1.3956,-1.3968,-1.3976,-1.3995,-1.3997,-1.4039,-1.4046,-1.407,-1.4103,-1.4111,-1.4117,-1.4118,-1.4186,-1.4187,-1.4187,-1.4165,-1.4164,-1.4163,0,0,0,0,0,-1.3829,-1.3844,-1.3853,-1.3863,-1.3921,-1.3957,-1.3964,-1.3992,-1.3995,-1.4004,-1.403,-1.4045,-1.411,-1.4106,-1.4115,-1.4122,-1.4186,-1.4187,-1.4187,-1.4165,-1.4164,-1.4163,0,0,0,0,0,0,-1.38,-1.385,-1.3861,-1.3891,-1.3919,-1.3962,-1.3974,-1.3989,-1.4017,-1.4018,-1.4051,-1.406,-1.4087,-1.4107,-1.4101,-1.4144,-1.415,-1.4152,-1.413,-1.4129,-1.4128,-1.4123,-1.412,0,0,0,0,0,-1.3797,-1.3822,-1.3864,-1.3886,-1.39,-1.3934,-1.3951,-1.3969,-1.4,-1.4012,-1.404,-1.4069,-1.4097,-1.4114,-1.4141,-1.4168,-1.4177,-1.4177,-1.4176,-1.4175,-1.4177,-1.4192,-1.4192,-1.4189,-1.4189,-1.4189,0,0,-1.3791,-1.3821,-1.3835,-1.3881,-1.3905,-1.393,-1.3944,-1.397,-1.3988,-1.4016,-1.4046,-1.4068,-1.4102,-1.413,-1.4144,-1.4148,-1.418,-1.4175,-1.4174,-1.4177,-1.4192,-1.4193,-1.4193,-1.4189,-1.4189,-1.4189,0,0,-1.3793,-1.3819,-1.384,-1.3864,-1.39,-1.3923,-1.3928,-1.3969,-1.3985,-1.4015,-1.4036,-1.4059,-1.4105,-1.4129,-1.4147,-1.4157,-1.4172,-1.4165,-1.416,-1.4175,-1.4175,-1.4175,-1.4179,-1.418,-1.4167,-1.4167,-1.4167,0,-1.3782,-1.382,-1.3849,-1.3873,-1.3892,-1.3918,-1.394,-1.3962,-1.4005,-1.4018,-1.4021,-1.408,-1.4105,-1.4139,-1.4141,-1.4155,-1.4162,-1.4161,-1.4173,-1.4173,-1.4174,-1.4178,-1.418,-1.4165,-1.4166,-1.4166,-1.4166,0,-1.3804,-1.383,-1.3842,-1.3884,-1.3904,-1.3927,-1.3959,-1.3976,-1.3993,-1.4015,-1.4046,-1.4077,-1.4111,-1.412,-1.4136,-1.4156,-1.4158,-1.4167,-1.4173,-1.4173,-1.4177,-1.4179,-1.4164,-1.4164,-1.4165,-1.4165,0,0,-1.3791,-1.3847,-1.3851,-1.387,-1.3912,-1.3933,-1.3956,-1.399,-1.4004,-1.4033,-1.4053,-1.4092,-1.41,-1.4121,-1.414,-1.4152,-1.4159,-1.416,-1.4161,-1.4159,-1.4183,-1.4176,-1.4177,-1.4169,-1.4169,-1.4169,-1.418,0,-1.3799,-1.3843,-1.3869,-1.3902,-1.3926,-1.3951,-1.3971,-1.3999,-1.402,-1.4044,-1.4068,-1.4094,-1.4103,-1.4116,-1.413,-1.4155,-1.4164,-1.4155,-1.4188,-1.4189,-1.4179,-1.418,-1.4172,-1.4181,-1.4182,-1.4182,-1.4182,0,-1.3814,-1.3843,-1.3878,-1.3917,-1.3928,-1.3946,-1.3979,-1.4001,-1.4033,-1.4047,-1.407,-1.4089,-1.4114,-1.4118,-1.4154,-1.4147,-1.4162,-1.4177,-1.4178,-1.4182,-1.4186,-1.4184,-1.4184,-1.4186,-1.4185,-1.4185,-1.4185,0,-1.3801,-1.3848,-1.3875,-1.3891,-1.3937,-1.3949,-1.3968,-1.4,-1.4018,-1.4047,-1.4059,-1.4089,-1.4106,-1.413,-1.4156,-1.4157,-1.4189,-1.4195,-1.4202,-1.4201,-1.4208,-1.4207,-1.4211,-1.4217,-1.4217,-1.4217,-1.4217,0,-1.3807,-1.3828,-1.387,-1.3887,-1.391,-1.394,-1.3963,-1.3984,-1.4012,-1.4033,-1.4057,-1.4076,-1.411,-1.4133,-1.4154,-1.4181,-1.4188,-1.4201,-1.4206,-1.4199,-1.4197,-1.4209,-1.4209,-1.4217,-1.4217,-1.4217,-1.4217,0,-1.3797,-1.3826,-1.3857,-1.3898,-1.3909,-1.3924,-1.3959,-1.3976,-1.3999,-1.4025,-1.4033,-1.4068,-1.4097,-1.4126,-1.4165,-1.4179,-1.4205,-1.4212,-1.4194,-1.4197,-1.4202,-1.4201,-1.4214,-1.4217,-1.4221,-1.4221,-1.422,0,-1.3799,-1.3816,-1.3858,-1.3874,-1.3893,-1.3919,-1.3937,-1.3967,-1.3985,-1.4023,-1.4035,-1.4066,-1.4092,-1.4137,-1.4165,-1.4195,-1.4203,-1.4206,-1.4208,-1.42,-1.4204,-1.4202,-1.4204,-1.4205,-1.4204,-1.4204,-1.4204,0,-1.3801,-1.3814,-1.384,-1.3871,-1.3893,-1.3918,-1.3945,-1.3957,-1.3991,-1.4011,-1.4041,-1.4061,-1.41,-1.413,-1.4163,-1.4184,-1.42,-1.4203,-1.4206,-1.4199,-1.4188,-1.4194,-1.4192,-1.4203,-1.4203,-1.4203,-1.4203,-1.4203,-1.3797,-1.3812,-1.3845,-1.3873,-1.3896,-1.392,-1.3938,-1.3963,-1.3988,-1.4023,-1.4039,-1.4068,-1.4099,-1.4146,-1.4165,-1.4189,-1.4193,-1.4198,-1.4199,-1.42,-1.4198,-1.4184,-1.4195,-1.4195,-1.4195,-1.4195,-1.4195,0,-1.3799,-1.3821,-1.3847,-1.3883,-1.3905,-1.3918,-1.3948,-1.3966,-1.3992,-1.402,-1.4045,-1.4079,-1.4108,-1.4139,-1.417,-1.4183,-1.4191,-1.419,-1.4189,-1.4194,-1.4192,-1.4187,-1.4183,-1.4183,-1.4183,-1.4183,-1.4183,-1.4183,-1.3803,-1.383,-1.3847,-1.3886,-1.3908,-1.3937,-1.3953,-1.3976,-1.3998,-1.4035,-1.4059,-1.4079,-1.4108,-1.4141,-1.4168,-1.4177,-1.4187,-1.4184,-1.4194,-1.4193,-1.4194,-1.4195,-1.4189,-1.4186,-1.4186,-1.4194,-1.4194,-1.4194]},{"header":{"parameterUnit":"m.s-1","parameterCategory":1,"la1":30.2991,"la2":30.254,"lo1":-89.0895,"lo2":-89.0444,"dy":0.0017,"dx":0.0017,"nx":28,"ny":28,"refTime":"2024-11-24T09:00:00:Z","depth":0,"parameterNumber":3,"parameterNumberName":"V-component_of_WINDS"},"data":[0,0,0,0,0,0,0,0,0,0,0,0,0,0,0,0,0,0,0,0,0,0,0,0,0,0,0,0,0,0,0,0,0,0,0,0,0,0,0,0,0,0,0,0,0,0,0,0,0,0,0,0,0,0,0,0,0,0,-0.4922,-0.4922,0,-0.4922,-0.4922,-0.4922,-0.4961,-0.4962,-0.4963,-0.4964,-0.4963,-0.4962,-0.4961,0,0,0,0,0,0,0,0,0,0,0,0,0,-0.4955,-0.4954,-0.4922,-0.4922,-0.4922,-0.4922,-0.4922,-0.4922,-0.4961,-0.4962,-0.4964,-0.4965,-0.4963,-0.4962,-0.4961,0,0,0,0,0,0,0,0,0,0,0,0,0,-0.4946,-0.4954,-0.4922,-0.4942,-0.4943,-0.4922,-0.4922,-0.4922,-0.4961,-0.4963,-0.4964,-0.4966,-0.4964,-0.4962,-0.4961,-0.492,0,0,-0.4956,-0.4955,0,0,0,0,0,0,0,0,-0.4947,-0.4945,-0.4939,-0.494,-0.4942,-0.4943,-0.4933,-0.4922,-0.4961,-0.4954,-0.4964,-0.4966,-0.4955,-0.4954,-0.4951,-0.492,-0.492,-0.4956,-0.4955,-0.4954,-0.4954,0,0,0,0,0,0,0,-0.4947,-0.4945,-0.4922,-0.4939,-0.4941,-0.495,-0.4951,-0.4931,-0.4946,-0.4955,-0.4958,-0.4957,-0.4956,-0.4952,-0.4951,-0.492,-0.4956,-0.4955,-0.4954,-0.4953,-0.4857,-0.4855,0,0,0,0,0,0,-0.4945,-0.4945,-0.4922,-0.4922,-0.4948,-0.4948,-0.4949,-0.4941,-0.4946,-0.4949,-0.4956,-0.4959,-0.4954,-0.4953,-0.4951,-0.4904,-0.4954,-0.4953,-0.4952,-0.4858,-0.4856,-0.4854,0,0,0,0,0,0,-0.4946,-0.4943,-0.4922,-0.4934,-0.4933,-0.4946,-0.4937,-0.4941,-0.4937,-0.4947,-0.495,-0.4949,-0.4955,-0.4953,-0.4928,-0.4904,-0.4952,-0.4951,-0.486,-0.4858,-0.4855,-0.4809,0,0,0,0,0,0,-0.4946,-0.4943,-0.4928,-0.4934,-0.4932,-0.4899,-0.4936,-0.4939,-0.4934,-0.4938,-0.4941,-0.4943,-0.4956,-0.493,-0.4926,-0.4903,-0.495,-0.4862,-0.4859,-0.4856,-0.4813,-0.4805,-0.4799,0,0,0,0,0,-0.4947,-0.4914,-0.4927,-0.4924,-0.4913,-0.4897,-0.4896,-0.4912,-0.4932,-0.4917,-0.4924,-0.4943,-0.4908,-0.4927,-0.4923,-0.4899,-0.4864,-0.486,-0.4856,-0.4816,-0.4807,-0.4799,0,0,0,0,0,0,-0.4904,-0.4915,-0.4929,-0.4897,-0.4896,-0.4904,-0.4885,-0.4902,-0.4895,-0.4899,-0.4919,-0.4919,-0.489,-0.4893,-0.4914,-0.4861,-0.4889,-0.4885,-0.486,-0.4851,-0.4845,-0.4844,-0.4949,0,0,0,0,0,-0.4891,-0.4877,-0.4888,-0.4859,-0.4857,-0.4871,-0.4865,-0.4878,-0.4877,-0.4877,-0.4882,-0.488,-0.4869,-0.486,-0.485,-0.4814,-0.4815,-0.4796,-0.4789,-0.4783,-0.4778,-0.4759,-0.475,-0.4842,-0.4842,-0.4842,0,0,-0.4863,-0.4868,-0.4858,-0.485,-0.4851,-0.4836,-0.4871,-0.4853,-0.4842,-0.4874,-0.485,-0.4854,-0.4853,-0.4822,-0.4808,-0.4823,-0.4754,-0.4779,-0.4774,-0.4772,-0.4754,-0.4745,-0.4738,-0.484,-0.484,-0.4841,0,0,-0.4805,-0.4807,-0.4783,-0.4783,-0.4784,-0.4794,-0.4788,-0.4793,-0.4797,-0.4774,-0.4797,-0.4784,-0.4764,-0.4763,-0.476,-0.4702,-0.4719,-0.4698,-0.4662,-0.4642,-0.4635,-0.4629,-0.4607,-0.4599,-0.4694,-0.4694,-0.4694,0,-0.4769,-0.4748,-0.4768,-0.4749,-0.4745,-0.4774,-0.4749,-0.4748,-0.4745,-0.4742,-0.4759,-0.4734,-0.4736,-0.4704,-0.469,-0.4687,-0.4681,-0.4697,-0.4635,-0.4629,-0.4623,-0.4603,-0.4594,-0.4691,-0.4691,-0.4692,-0.4692,0,-0.4705,-0.469,-0.467,-0.4668,-0.4661,-0.464,-0.4655,-0.4647,-0.466,-0.4668,-0.4644,-0.4647,-0.4639,-0.4633,-0.4645,-0.4603,-0.4612,-0.4631,-0.466,-0.4611,-0.4592,-0.4585,-0.4687,-0.4688,-0.4689,-0.469,0,0,-0.4617,-0.4627,-0.4619,-0.4618,-0.4622,-0.461,-0.459,-0.4582,-0.4574,-0.4572,-0.4555,-0.4538,-0.4556,-0.4552,-0.4565,-0.4549,-0.4502,-0.457,-0.4571,-0.4557,-0.4454,-0.4439,-0.4429,-0.4514,-0.4513,-0.4512,-0.4454,0,-0.456,-0.4526,-0.4543,-0.4507,-0.4493,-0.4521,-0.4504,-0.4504,-0.4511,-0.45,-0.4508,-0.4495,-0.4521,-0.4519,-0.4504,-0.4511,-0.4481,-0.4515,-0.4498,-0.4497,-0.4495,-0.442,-0.4403,-0.4348,-0.4447,-0.4446,-0.4445,0,-0.4487,-0.4483,-0.4445,-0.4452,-0.4447,-0.443,-0.4425,-0.4414,-0.4415,-0.4422,-0.4418,-0.4435,-0.4416,-0.4446,-0.4419,-0.4441,-0.4435,-0.4438,-0.4436,-0.4434,-0.4467,-0.4414,-0.4331,-0.4322,-0.4434,-0.4435,-0.4435,0,-0.4426,-0.441,-0.4385,-0.4384,-0.4392,-0.4379,-0.4382,-0.4385,-0.4379,-0.4374,-0.437,-0.4363,-0.4359,-0.4352,-0.4367,-0.4388,-0.4338,-0.4369,-0.4342,-0.4341,-0.4328,-0.4329,-0.4242,-0.4327,-0.4327,-0.4327,-0.4327,0,-0.4358,-0.4334,-0.4358,-0.4342,-0.4316,-0.4337,-0.431,-0.4315,-0.4318,-0.4304,-0.4328,-0.4314,-0.4335,-0.4324,-0.4335,-0.431,-0.4309,-0.4313,-0.4316,-0.431,-0.4309,-0.4305,-0.4308,-0.4325,-0.4325,-0.4326,-0.4326,0,-0.4284,-0.4299,-0.4274,-0.4284,-0.4286,-0.4266,-0.4274,-0.426,-0.4269,-0.4251,-0.4248,-0.4263,-0.425,-0.4265,-0.4254,-0.4262,-0.4228,-0.4237,-0.4227,-0.423,-0.4201,-0.4203,-0.4107,-0.4095,-0.4189,-0.4188,-0.4187,0,-0.4239,-0.4221,-0.4229,-0.4222,-0.4223,-0.4211,-0.4206,-0.4226,-0.4219,-0.422,-0.4205,-0.4195,-0.4188,-0.4167,-0.4176,-0.4167,-0.4176,-0.4143,-0.4175,-0.4169,-0.4174,-0.4174,-0.4172,-0.4136,-0.4135,-0.4134,-0.4133,0,-0.4158,-0.4167,-0.4158,-0.4152,-0.4145,-0.4142,-0.414,-0.4132,-0.4153,-0.4144,-0.4132,-0.4127,-0.4116,-0.4105,-0.4099,-0.4102,-0.412,-0.4124,-0.4117,-0.4109,-0.4104,-0.4105,-0.4208,-0.4125,-0.4126,-0.4127,-0.4127,-0.4127,-0.4096,-0.4081,-0.4085,-0.4075,-0.4076,-0.4074,-0.4061,-0.407,-0.406,-0.4053,-0.4066,-0.405,-0.4052,-0.4047,-0.4047,-0.4035,-0.4049,-0.4039,-0.4036,-0.4033,-0.4028,-0.4107,-0.4034,-0.4034,-0.4035,-0.4035,-0.4035,0,-0.4015,-0.4019,-0.401,-0.4007,-0.3999,-0.4019,-0.4018,-0.4009,-0.3996,-0.3997,-0.3989,-0.3975,-0.3966,-0.3975,-0.3966,-0.3955,-0.3963,-0.3952,-0.3952,-0.3952,-0.4017,-0.4023,-0.3945,-0.3945,-0.3945,-0.3945,-0.3945,-0.3945,-0.3972,-0.3948,-0.3957,-0.3934,-0.3938,-0.3924,-0.3921,-0.3919,-0.392,-0.3904,-0.3896,-0.3903,-0.3906,-0.3899,-0.3891,-0.3894,-0.3889,-0.3874,-0.388,-0.3939,-0.3948,-0.3956,-0.3962,-0.3873,-0.3873,-0.3816,-0.3816,-0.3816]}]]